Location: Newark
(42.7133°N, 87.7910°W)
Time: 13:31:10
(UTC+00:00)

Vanguard 1 Rocket - Pass Details

Date: 26 September 2019
Orbit: 650 x 4226 km, 34.3° (Epoch: 19 October)

Event Time Altitude Azimuth Distance (km) Brightness Sun altitude
Rises 04:22:10 0° 280° (W) 6,730 12.2 -44.7°
Reaches altitude 10° 04:28:25 10° 270° (W) 5,017 11.3 -45.2°
Enters shadow 04:34:10 20° 249° (WSW) 3,546 10.3 -45.7°
